Time,TemperatureF,DewpointF,PressureIn,WindDirection,WindDirectionDegrees,WindSpeedMPH,WindSpeedGustMPH,Humidity,HourlyPrecipIn,Conditions,Clouds,dailyrainin,SoftwareType,DateUTC
2013-05-08 00:02:00,58.0,49.0,29.99,NNE,28,0.0,0.0,72,0.00,,,0.00,,2013-05-08 04:02:00,
2013-05-08 00:12:00,57.0,48.0,29.98,NNE,28,0.0,0.0,73,0.00,,,0.00,,2013-05-08 04:12:00,
2013-05-08 00:13:00,58.0,49.0,29.99,NNE,28,0.0,0.0,72,0.00,,,0.00,,2013-05-08 04:13:00,
2013-05-08 00:23:00,58.0,49.0,29.99,NNE,28,0.0,0.0,72,0.00,,,0.00,,2013-05-08 04:23:00,
2013-05-08 00:33:00,57.0,48.0,29.98,NNE,28,0.0,0.0,73,0.00,,,0.00,,2013-05-08 04:33:00,
2013-05-08 00:43:00,57.0,48.0,29.98,NNE,28,0.0,0.0,73,0.00,,,0.00,,2013-05-08 04:43:00,
2013-05-08 00:52:00,57.0,48.0,29.98,NNE,28,0.0,0.0,73,0.00,,,0.00,,2013-05-08 04:52:00,
2013-05-08 01:02:00,57.0,48.0,29.98,NNE,28,0.0,0.0,73,0.00,,,0.00,,2013-05-08 05:02:00,
2013-05-08 01:22:00,54.0,48.0,29.98,NNE,28,0.0,0.0,80,0.00,,,0.00,,2013-05-08 05:22:00,
2013-05-08 01:32:00,54.0,48.0,29.98,NNE,28,0.0,0.0,80,0.00,,,0.00,,2013-05-08 05:32:00,
2013-05-08 01:42:00,54.0,48.0,29.98,NNE,28,0.0,0.0,80,0.00,,,0.00,,2013-05-08 05:42:00,
2013-05-08 01:52:00,54.0,49.0,29.98,NNE,28,0.0,0.0,82,0.00,,,0.00,,2013-05-08 05:52:00,
2013-05-08 02:02:00,53.0,48.0,29.98,NNE,28,0.0,0.0,84,0.00,,,0.00,,2013-05-08 06:02:00,
2013-05-08 02:12:00,53.0,48.0,29.98,NNE,28,0.0,0.0,84,0.00,,,0.00,,2013-05-08 06:12:00,
2013-05-08 02:21:00,53.0,48.0,29.98,NNE,28,0.0,0.0,84,0.00,,,0.00,,2013-05-08 06:21:00,
2013-05-08 02:32:00,53.0,48.0,29.97,NNE,28,0.0,0.0,84,0.00,,,0.00,,2013-05-08 06:32:00,
2013-05-08 02:42:00,53.0,48.0,29.97,NNE,28,0.0,0.0,84,0.00,,,0.00,,2013-05-08 06:42:00,
2013-05-08 02:52:00,52.0,48.0,29.97,NNE,28,0.0,0.0,85,0.00,,,0.00,,2013-05-08 06:52:00,
2013-05-08 03:02:00,52.0,48.0,29.96,NNE,28,0.0,0.0,86,0.00,,,0.00,,2013-05-08 07:02:00,
2013-05-08 03:11:00,52.0,48.0,29.96,NNE,28,0.0,0.0,86,0.00,,,0.00,,2013-05-08 07:11:00,
2013-05-08 03:22:00,52.0,48.0,29.96,NNE,28,0.0,0.0,87,0.00,,,0.00,,2013-05-08 07:22:00,
2013-05-08 03:32:00,51.0,48.0,29.96,NNE,28,0.0,0.0,88,0.00,,,0.00,,2013-05-08 07:32:00,
2013-05-08 03:42:00,51.0,48.0,29.96,NNE,28,0.0,0.0,88,0.00,,,0.00,,2013-05-08 07:42:00,
2013-05-08 03:52:00,51.0,48.0,29.96,NNE,28,0.0,0.0,88,0.00,,,0.00,,2013-05-08 07:52:00,
2013-05-08 04:02:00,51.0,48.0,29.96,NNE,28,0.0,0.0,89,0.00,,,0.00,,2013-05-08 08:02:00,
2013-05-08 04:12:00,51.0,48.0,29.96,NNE,28,0.0,0.0,89,0.00,,,0.00,,2013-05-08 08:12:00,
2013-05-08 04:21:00,50.0,47.0,29.96,NNE,28,0.0,0.0,89,0.00,,,0.00,,2013-05-08 08:21:00,
2013-05-08 04:32:00,50.0,47.0,29.97,NNE,28,0.0,0.0,90,0.00,,,0.00,,2013-05-08 08:32:00,
2013-05-08 04:42:00,50.0,47.0,29.97,NNE,28,0.0,0.0,90,0.00,,,0.00,,2013-05-08 08:42:00,
2013-05-08 04:52:00,50.0,47.0,29.97,NNE,28,0.0,0.0,90,0.00,,,0.00,,2013-05-08 08:52:00,
2013-05-08 05:02:00,50.0,47.0,29.96,NNE,28,0.0,0.0,90,0.00,,,0.00,,2013-05-08 09:02:00,
2013-05-08 05:11:00,50.0,47.0,29.96,NNE,28,0.0,0.0,90,0.00,,,0.00,,2013-05-08 09:11:00,
2013-05-08 05:21:00,49.0,46.0,29.96,NNE,28,0.0,0.0,91,0.00,,,0.00,,2013-05-08 09:21:00,
2013-05-08 05:32:00,49.0,46.0,29.96,NNE,28,0.0,0.0,91,0.00,,,0.00,,2013-05-08 09:32:00,
2013-05-08 05:42:00,49.0,46.0,29.96,NNE,28,0.0,0.0,91,0.00,,,0.00,,2013-05-08 09:42:00,
2013-05-08 05:53:00,49.0,46.0,29.96,NNE,28,0.0,0.0,91,0.00,,,0.00,,2013-05-08 09:53:00,
2013-05-08 06:02:00,49.0,46.0,29.96,NNE,28,0.0,0.0,91,0.00,,,0.00,,2013-05-08 10:02:00,
2013-05-08 06:12:00,49.0,46.0,29.96,NNE,28,0.0,0.0,91,0.00,,,0.00,,2013-05-08 10:12:00,
2013-05-08 06:22:00,49.0,46.0,29.96,NNE,28,0.0,0.0,91,0.00,,,0.00,,2013-05-08 10:22:00,
2013-05-08 06:33:00,48.0,46.0,29.96,NNE,28,0.0,0.0,92,0.00,,,0.00,,2013-05-08 10:33:00,
2013-05-08 06:42:00,48.0,46.0,29.96,NNE,28,0.0,0.0,92,0.00,,,0.00,,2013-05-08 10:42:00,
2013-05-08 06:53:00,48.0,45.0,29.96,NNE,28,0.0,0.0,91,0.00,,,0.00,,2013-05-08 10:53:00,
2013-05-08 07:02:00,48.0,45.0,29.96,NNE,28,0.0,0.0,91,0.00,,,0.00,,2013-05-08 11:02:00,
2013-05-08 07:11:00,48.0,45.0,29.96,NNE,28,0.0,0.0,91,0.00,,,0.00,,2013-05-08 11:11:00,
2013-05-08 07:22:00,48.0,45.0,29.96,NNE,28,0.0,0.0,91,0.00,,,0.00,,2013-05-08 11:22:00,
2013-05-08 07:32:00,48.0,45.0,29.96,NNE,28,0.0,0.0,91,0.00,,,0.00,,2013-05-08 11:32:00,
2013-05-08 07:42:00,48.0,45.0,29.96,NNE,28,0.0,0.0,91,0.00,,,0.00,,2013-05-08 11:42:00,
2013-05-08 07:52:00,49.0,47.0,29.96,NNE,28,0.0,0.0,92,0.00,,,0.00,,2013-05-08 11:52:00,
2013-05-08 08:01:00,50.0,48.0,29.96,NNE,28,0.0,0.0,92,0.00,,,0.00,,2013-05-08 12:01:00,
2013-05-08 08:11:00,50.0,48.0,29.96,NNE,28,0.0,0.0,92,0.00,,,0.00,,2013-05-08 12:11:00,
2013-05-08 08:21:00,52.0,49.0,29.97,NNE,28,0.0,0.0,88,0.00,,,0.00,,2013-05-08 12:21:00,
2013-05-08 08:32:00,53.0,48.0,29.96,NNE,28,0.0,0.0,84,0.00,,,0.00,,2013-05-08 12:32:00,
2013-05-08 08:42:00,53.0,48.0,29.96,NNE,28,0.0,0.0,84,0.00,,,0.00,,2013-05-08 12:42:00,
2013-05-08 08:52:00,57.0,49.0,29.97,NNE,28,0.0,0.0,75,0.00,,,0.00,,2013-05-08 12:52:00,
2013-05-08 09:01:00,60.0,49.0,29.96,NNE,28,0.0,0.0,67,0.00,,,0.00,,2013-05-08 13:01:00,
2013-05-08 09:11:00,60.0,49.0,29.96,NNE,28,0.0,0.0,67,0.00,,,0.00,,2013-05-08 13:11:00,
2013-05-08 09:21:00,64.0,49.0,29.97,NNE,28,0.0,0.0,58,0.00,,,0.00,,2013-05-08 13:21:00,
2013-05-08 09:32:00,66.0,47.0,29.97,NNE,22,2.0,3.0,50,0.00,,,0.00,,2013-05-08 13:32:00,
2013-05-08 09:42:00,66.0,47.0,29.97,NNE,22,2.0,3.0,50,0.00,,,0.00,,2013-05-08 13:42:00,
2013-05-08 09:52:00,67.0,47.0,29.97,North,0,0.0,4.0,48,0.00,,,0.00,,2013-05-08 13:52:00,
2013-05-08 10:02:00,69.0,47.0,29.97,NNE,24,0.0,3.0,46,0.00,,,0.00,,2013-05-08 14:02:00,
2013-05-08 10:11:00,69.0,47.0,29.97,NNE,24,0.0,3.0,46,0.00,,,0.00,,2013-05-08 14:11:00,
2013-05-08 10:21:00,70.0,48.0,29.97,NNE,24,2.0,2.0,45,0.00,,,0.00,,2013-05-08 14:21:00,
2013-05-08 10:32:00,71.0,47.0,29.96,NE,53,0.0,4.0,42,0.00,,,0.00,,2013-05-08 14:32:00,
2013-05-08 10:42:00,71.0,47.0,29.96,NE,53,0.0,4.0,42,0.00,,,0.00,,2013-05-08 14:42:00,
2013-05-08 10:52:00,72.0,48.0,29.96,ENE,73,0.0,3.0,43,0.00,,,0.00,,2013-05-08 14:52:00,
2013-05-08 11:02:00,74.0,50.0,29.96,NNE,26,0.0,3.0,43,0.00,,,0.00,,2013-05-08 15:02:00,
2013-05-08 11:11:00,74.0,50.0,29.96,NNE,26,0.0,3.0,43,0.00,,,0.00,,2013-05-08 15:11:00,
2013-05-08 11:21:00,75.0,50.0,29.96,NE,49,0.0,4.0,41,0.00,,,0.00,,2013-05-08 15:21:00,
2013-05-08 11:33:00,76.0,50.0,29.96,ENE,62,1.0,4.0,40,0.00,,,0.00,,2013-05-08 15:33:00,
2013-05-08 11:42:00,76.0,50.0,29.96,ENE,62,1.0,4.0,40,0.00,,,0.00,,2013-05-08 15:42:00,
2013-05-08 11:53:00,77.0,49.0,29.96,NE,46,0.0,5.0,38,0.00,,,0.00,,2013-05-08 15:53:00,
2013-05-08 12:03:00,78.0,52.0,29.96,NE,53,0.0,2.0,40,0.00,,,0.00,,2013-05-08 16:03:00,
2013-05-08 12:12:00,78.0,52.0,29.96,NE,53,0.0,2.0,40,0.00,,,0.00,,2013-05-08 16:12:00,
2013-05-08 12:23:00,79.0,53.0,29.96,NNE,22,0.0,4.0,40,0.00,,,0.00,,2013-05-08 16:23:00,
2013-05-08 12:33:00,80.0,51.0,29.95,NNE,13,3.0,3.0,37,0.00,,,0.00,,2013-05-08 16:33:00,
2013-05-08 12:42:00,80.0,51.0,29.95,NNE,13,3.0,3.0,37,0.00,,,0.00,,2013-05-08 16:42:00,
2013-05-08 12:52:00,80.0,52.0,29.95,ENE,63,0.0,7.0,38,0.00,,,0.00,,2013-05-08 16:52:00,
2013-05-08 13:02:00,80.0,50.0,29.95,NE,43,4.0,10.0,35,0.00,,,0.00,,2013-05-08 17:02:00,
2013-05-08 13:12:00,80.0,50.0,29.95,NE,43,4.0,10.0,35,0.00,,,0.00,,2013-05-08 17:12:00,
2013-05-08 13:22:00,80.0,50.0,29.94,East,80,0.0,4.0,35,0.00,,,0.00,,2013-05-08 17:22:00,
2013-05-08 13:32:00,80.0,50.0,29.94,East,80,0.0,4.0,35,0.00,,,0.00,,2013-05-08 17:32:00,
2013-05-08 13:41:00,80.0,50.0,29.94,East,80,0.0,4.0,35,0.00,,,0.00,,2013-05-08 17:41:00,
2013-05-08 13:52:00,80.0,52.0,29.93,NE,56,0.0,5.0,38,0.00,,,0.00,,2013-05-08 17:52:00,
2013-05-08 14:02:00,80.0,54.0,29.93,NE,42,0.0,3.0,41,0.00,,,0.00,,2013-05-08 18:02:00,
2013-05-08 14:12:00,80.0,54.0,29.93,NE,42,0.0,3.0,41,0.00,,,0.00,,2013-05-08 18:12:00,
2013-05-08 14:21:00,80.0,53.0,29.93,North,5,4.0,5.0,40,0.00,,,0.00,,2013-05-08 18:21:00,
2013-05-08 14:32:00,79.0,54.0,29.92,NE,38,5.0,5.0,42,0.00,,,0.00,,2013-05-08 18:32:00,
2013-05-08 14:42:00,79.0,54.0,29.92,NE,38,5.0,5.0,42,0.00,,,0.00,,2013-05-08 18:42:00,
2013-05-08 14:52:00,79.0,53.0,29.92,East,79,1.0,5.0,40,0.00,,,0.00,,2013-05-08 18:52:00,
2013-05-08 15:01:00,81.0,54.0,29.92,NE,49,0.0,3.0,40,0.00,,,0.00,,2013-05-08 19:01:00,
2013-05-08 15:11:00,81.0,54.0,29.92,NE,49,0.0,3.0,40,0.00,,,0.00,,2013-05-08 19:11:00,
2013-05-08 15:22:00,82.0,52.0,29.92,East,83,2.0,5.0,35,0.00,,,0.00,,2013-05-08 19:22:00,
2013-05-08 15:32:00,82.0,52.0,29.92,ENE,76,0.0,7.0,36,0.00,,,0.00,,2013-05-08 19:32:00,
2013-05-08 15:42:00,82.0,52.0,29.92,ENE,76,0.0,7.0,36,0.00,,,0.00,,2013-05-08 19:42:00,
2013-05-08 15:52:00,83.0,53.0,29.92,ENE,78,0.0,5.0,36,0.00,,,0.00,,2013-05-08 19:52:00,
2013-05-08 16:02:00,83.0,51.0,29.91,ENE,65,1.0,7.0,33,0.00,,,0.00,,2013-05-08 20:02:00,
2013-05-08 16:11:00,83.0,51.0,29.91,ENE,65,1.0,7.0,33,0.00,,,0.00,,2013-05-08 20:11:00,
2013-05-08 16:22:00,83.0,52.0,29.91,East,83,4.0,9.0,34,0.00,,,0.00,,2013-05-08 20:22:00,
2013-05-08 16:32:00,83.0,52.0,29.91,East,83,0.0,4.0,34,0.00,,,0.00,,2013-05-08 20:32:00,
2013-05-08 16:42:00,83.0,51.0,29.91,North,5,0.0,4.0,33,0.00,,,0.00,,2013-05-08 20:42:00,
2013-05-08 16:52:00,83.0,51.0,29.91,North,5,0.0,4.0,33,0.00,,,0.00,,2013-05-08 20:52:00,
2013-05-08 17:01:00,83.0,50.0,29.90,SE,146,3.0,6.0,32,0.00,,,0.00,,2013-05-08 21:01:00,
2013-05-08 17:12:00,82.0,51.0,29.90,North,355,0.0,3.0,34,0.00,,,0.00,,2013-05-08 21:12:00,
2013-05-08 17:21:00,82.0,51.0,29.90,North,355,0.0,3.0,34,0.00,,,0.00,,2013-05-08 21:21:00,
2013-05-08 17:33:00,82.0,51.0,29.90,North,355,0.0,3.0,34,0.00,,,0.00,,2013-05-08 21:33:00,
2013-05-08 17:43:00,79.0,49.0,29.90,ESE,103,0.0,3.0,35,0.00,,,0.00,,2013-05-08 21:43:00,
2013-05-08 17:52:00,79.0,49.0,29.90,ESE,103,0.0,3.0,35,0.00,,,0.00,,2013-05-08 21:52:00,
2013-05-08 18:03:00,81.0,49.0,29.90,NNE,25,0.0,5.0,33,0.00,,,0.00,,2013-05-08 22:03:00,
2013-05-08 18:12:00,79.0,49.0,29.90,ENE,69,0.0,2.0,35,0.00,,,0.00,,2013-05-08 22:12:00,
2013-05-08 18:22:00,79.0,49.0,29.90,ENE,69,0.0,2.0,35,0.00,,,0.00,,2013-05-08 22:22:00,
2013-05-08 18:33:00,77.0,48.0,29.90,NE,54,0.0,5.0,36,0.00,,,0.00,,2013-05-08 22:33:00,
2013-05-08 18:42:00,77.0,48.0,29.90,NE,36,3.0,3.0,36,0.00,,,0.00,,2013-05-08 22:42:00,
2013-05-08 18:52:00,77.0,48.0,29.90,NE,36,3.0,3.0,36,0.00,,,0.00,,2013-05-08 22:52:00,
2013-05-08 19:02:00,76.0,48.0,29.90,NNE,33,0.0,2.0,37,0.00,,,0.00,,2013-05-08 23:02:00,
2013-05-08 19:12:00,76.0,48.0,29.90,NNE,33,0.0,2.0,37,0.00,,,0.00,,2013-05-08 23:12:00,
2013-05-08 19:22:00,76.0,48.0,29.90,NNE,33,0.0,2.0,37,0.00,,,0.00,,2013-05-08 23:22:00,
2013-05-08 19:32:00,76.0,48.0,29.90,NNE,33,0.0,2.0,37,0.00,,,0.00,,2013-05-08 23:32:00,
2013-05-08 19:42:00,74.0,47.0,29.90,ENE,76,0.0,2.0,39,0.00,,,0.00,,2013-05-08 23:42:00,
2013-05-08 19:53:00,74.0,47.0,29.90,ENE,76,0.0,2.0,39,0.00,,,0.00,,2013-05-08 23:53:00,
2013-05-08 20:02:00,73.0,50.0,29.90,ENE,73,0.0,0.0,45,0.00,,,0.00,,2013-05-09 00:02:00,
2013-05-08 20:12:00,73.0,50.0,29.90,ENE,73,0.0,0.0,45,0.00,,,0.00,,2013-05-09 00:12:00,
2013-05-08 20:21:00,71.0,50.0,29.90,ENE,72,0.0,0.0,47,0.00,,,0.00,,2013-05-09 00:21:00,
2013-05-08 20:32:00,70.0,50.0,29.90,ENE,73,0.0,0.0,50,0.00,,,0.00,,2013-05-09 00:32:00,
2013-05-08 20:42:00,69.0,51.0,29.91,ENE,61,1.0,3.0,52,0.00,,,0.00,,2013-05-09 00:42:00,
2013-05-08 20:52:00,69.0,51.0,29.91,ENE,61,1.0,3.0,52,0.00,,,0.00,,2013-05-09 00:52:00,
2013-05-08 21:01:00,68.0,51.0,29.91,NE,37,0.0,1.0,55,0.00,,,0.00,,2013-05-09 01:01:00,
2013-05-08 21:12:00,67.0,49.0,29.91,ENE,63,0.0,2.0,53,0.00,,,0.00,,2013-05-09 01:12:00,
2013-05-08 21:22:00,67.0,49.0,29.91,ENE,63,0.0,2.0,53,0.00,,,0.00,,2013-05-09 01:22:00,
2013-05-08 21:32:00,66.0,50.0,29.91,ENE,63,0.0,0.0,56,0.00,,,0.00,,2013-05-09 01:32:00,
2013-05-08 21:42:00,64.0,48.0,29.92,NE,53,0.0,1.0,57,0.00,,,0.00,,2013-05-09 01:42:00,
2013-05-08 21:52:00,64.0,48.0,29.92,NE,53,0.0,1.0,57,0.00,,,0.00,,2013-05-09 01:52:00,
2013-05-08 22:02:00,63.0,48.0,29.92,NE,53,0.0,0.0,59,0.00,,,0.00,,2013-05-09 02:02:00,
2013-05-08 22:12:00,63.0,50.0,29.93,NE,54,0.0,0.0,62,0.00,,,0.00,,2013-05-09 02:12:00,
2013-05-08 22:22:00,63.0,50.0,29.93,NE,54,0.0,0.0,62,0.00,,,0.00,,2013-05-09 02:22:00,
2013-05-08 22:32:00,62.0,50.0,29.93,NE,54,0.0,0.0,65,0.00,,,0.00,,2013-05-09 02:32:00,
2013-05-08 22:42:00,62.0,50.0,29.93,NE,54,0.0,0.0,65,0.00,,,0.00,,2013-05-09 02:42:00,
2013-05-08 22:52:00,62.0,50.0,29.93,NE,54,0.0,0.0,65,0.00,,,0.00,,2013-05-09 02:52:00,
2013-05-08 23:02:00,62.0,51.0,29.93,NE,53,0.0,2.0,67,0.00,,,0.00,,2013-05-09 03:02:00,
2013-05-08 23:11:00,62.0,51.0,29.93,NE,53,0.0,2.0,67,0.00,,,0.00,,2013-05-09 03:11:00,
2013-05-08 23:21:00,62.0,51.0,29.93,NE,53,0.0,0.0,68,0.00,,,0.00,,2013-05-09 03:21:00,
2013-05-08 23:33:00,61.0,51.0,29.93,NE,53,0.0,0.0,69,0.00,,,0.00,,2013-05-09 03:33:00,
2013-05-08 23:43:00,61.0,51.0,29.93,NE,53,0.0,0.0,69,0.00,,,0.00,,2013-05-09 03:43:00,
2013-05-08 23:53:00,60.0,51.0,29.93,NE,53,0.0,0.0,72,0.00,,,0.00,,2013-05-09 03:53:00,